Flag for U.S.A. Weather past 2 weeks in Warminster Township, Pennsylvania, U.S.A.

Now
43 °F

Overcast.


Feels Like: 39 °F
Forecast: 40 / 48 °F
Wind: 6 mph from Northwest

Location: Doylestown Airport

Current Time: Mar 27, 2015 at 1:48:34 AM

Latest Report: Mar 27, 2015 at 12:54 AM


Visibility: 10 mi

Pressure: 29.72 "Hg

Humidity: 93%

Dew point: 41 °F

Location of Warminster TownshipLocation

Historic Weather in Warminster Township — Graph

°F

Warminster Township temperature yesterday

Maximum temperature yesterday: 65 °F (at 5:54 PM)
Minimum temperature yesterday: 34 °F (at 3:54 AM)
Average temperature yesterday: 47 °F

Past Weeks' High & Low Weather Summary

 TemperatureHumidityPressure
High65 °F (Mar 26, 5:54 PM)100% (Mar 14, 2:54 AM)30.66 "Hg (Mar 14, 2:54 AM)
Low20 °F (Mar 19, 4:54 AM)20% (Mar 12, 3:54 PM)29.57 "Hg (Mar 26, 6:54 PM)
Average37 °F62%30.12 "Hg
* Reported Mar 11 11:54 PM — Mar 26 11:54 PM, Warminster Township, Weather by CustomWeather, © 2015

Note: Actual official high and low records may vary slightly from our data, if they occured in-between our weather recording intervals... More about our weather records

Advertising

Warminster Township weather history for previous 24 hours

 ConditionsComfort  
Time TempWeatherWind HumidityBarometerVisibility
11:54 PM
Thu, Mar 26
44 °FOvercast.8 mph96%29.68 "Hg10 mi
10:54 PM46 °FOvercast.10 mph96%29.67 "Hg10 mi
9:54 PM50 °FHeavy rain. Fog.9 mph100%29.68 "Hg5 mi
9:02 PM52 °FRain. Fog.5 mph100%29.65 "Hg5 mi
8:54 PM52 °FHeavy rain. Fog.8 mph100%29.65 "Hg4 mi
7:54 PM62 °FMostly cloudy.7 mph86%29.57 "Hg10 mi
6:54 PM63 °FOvercast.9 mph87%29.57 "Hg10 mi
5:54 PM65 °FPartly sunny.7 mph81%29.60 "Hg10 mi
4:54 PM62 °FMostly cloudy.8 mph93%29.63 "Hg10 mi
4:02 PM58 °FFog.5 mph100%29.65 "Hg5 mi
3:54 PM57 °FFog.3 mph100%29.67 "Hg4 mi
3:02 PM54 °FFog.6 mph100%29.69 "Hg2 mi
2:54 PM54 °FFog.3 mph100%29.70 "Hg3 mi
2:03 PM50 °FLight rain. Fog.No wind100%29.75 "Hg1 mi
1:54 PM50 °FLight rain. Fog.No wind100%29.76 "Hg2 mi
12:54 PM50 °FLight rain. Fog.No wind96%29.81 "Hg6 mi
11:54 AM47 °FLight rain. Fog.No wind97%29.87 "Hg6 mi
10:54 AM46 °FLow clouds.5 mph89%29.90 "Hg10 mi
9:54 AM44 °FOvercast.3 mph93%29.93 "Hg8 mi
8:54 AM40 °FFog.No wind100%29.96 "Hg5 mi
7:54 AM38 °FFog.No wind100%29.98 "Hg4 mi
6:54 AM37 °FFog.No wind100%29.98 "Hg4 mi
6:02 AM36 °FFog.No wind100%29.99 "Hg4 mi
5:54 AM36 °FFog.No wind100%30.01 "Hg4 mi
4:54 AM36 °FFog.No wind100%30.02 "Hg3 mi
3:54 AM34 °FFog.No wind100%30.05 "Hg1 mi
2:58 AM36 °FFog.No wind100%30.05 "Hg2 mi
1:54 AM38 °FFog.No wind100%30.11 "Hg6 mi
Weather by CustomWeather, © 2015

See weather overviewHow to use our weather pages